Regional Weather Roundup
Issued by NWS

Home | Current Version | Previous Version | Text Only | Print | Product List | Glossary Off
Versions: 1 2 3 4 5 6 7 8 9 10 11 12 13 14 15 16 17 18 19 20 21 22 23 24 25 26 27 28 29 30 31 32 33 34 35 36 37 38 39 40 41 42 43 44 45 46 47 48 49 50

000
ASUS43 KLOT 300721
RWRIL

ILLINOIS REGIONAL WEATHER ROUNDUP
NATIONAL WEATHER SERVICE CHICAGO/ROMEOVILLE IL
200 AM CDT MON MAR 30 2015

NOTE: "FAIR" INDICATES FEW OR NO CLOUDS BELOW 12,000 FEET WITH NO
SIGNIFICANT WEATHER AND/OR OBSTRUCTIONS TO VISIBILITY.

* THESE STATIONS ARE NOT UNDER NWS QUALITY CONTROL. THEY ALSO MAY NOT
  REPORT WEATHER SUCH AS PRECIPITATION OR FOG.

ILZ001-002-007-009-015-016-024-300800-
NORTHWEST ILLINOIS

CITY           SKY/WX    TMP DP  RH WIND       PRES   REMARKS
MOLINE         CLEAR     43  30  60 W9        30.04R
STERLING*      CLEAR     34  27  75 NW10      30.02R WCI  26
SAVANNA*       CLEAR     42  30  62 W7        30.01R
$$

ILZ003-004-008-010-011-017-018-300800-
NORTH CENTRAL ILLINOIS

CITY           SKY/WX    TMP DP  RH WIND       PRES   REMARKS
ROCKFORD       PTCLDY    39  28  64 NW10      29.99R WCI  32
FREEPORT*      CLEAR     37  28  71 W8        30.00S WCI  31
ROCHELLE*      CLEAR     36  29  77 W8        29.99S WCI  30
DE KALB*       CLEAR     35  28  76 W9        29.98R WCI  28
PERU*          CLEAR     38  31  76 W10       30.02R WCI  30
$$

ILZ005-006-012>014-019>023-300800-
NORTHEAST ILLINOIS

CITY           SKY/WX    TMP DP  RH WIND       PRES   REMARKS
CHICAGO-OHARE  PTCLDY    38  30  73 NW6       29.95R WCI  33
CHICAGO-MIDWAY PTCLDY    42  32  67 W5        29.97R
AURORA         CLEAR     34  28  79 W9        29.98R WCI  27
LANSING*       PTCLDY    40  30  67 W5        29.97R
JOLIET*        MOCLDY    39  32  74 W5        29.99R
WAUKEGAN       MOCLDY    38  33  82 VRB6      29.93R WCI  33
DUPAGE AIRPORT CLEAR     39  30  70 W12       29.96R WCI  32
KANKAKEE*      MOCLDY    37  32  85 W8        30.00R WCI  30
WHEELING       MOCLDY    39  32  76 W3        29.96R
MORRIS*        CLEAR     32  29  86 W9        29.98S WCI  25
ROMEOVILLE*    CLEAR     39  30  69 NW10G16   29.98R WCI  32
NORTHERLY ISL    N/A     43  32  65 W10         N/A
$$

LMZ740>746-300800-
SOUTHERN LAKE MICHIGAN

STATION/POSITION SKY/WX   TEMP    WIND        PRES    VSBY  WAVE
                          AIR SEA DIR/SP/G                  HT/PER
                          (F)     (DEG/KT/KT) (MB)    (MI)  (FT/S)
HARRISON CRIB              43     270/ 13/ 16   N/A
BURNHAM HARBOR             43     290/  7/  9   N/A
CALUMET HARBOR             42     260/  4/  5 1013.2R
BURNS HARBOR               40     260/  8/  9 1014.9R
MICHIGAN CITY              39     230/ 13/ 14   N/A
$$

ILZ025>027-034>036-040-047-049-050-058-095>099-300800-
WEST-CENTRAL ILLINOIS

CITY           SKY/WX    TMP DP  RH WIND       PRES   REMARKS
QUINCY         CLEAR     44  33  65 W5        30.11R
GALESBURG*     CLEAR     36  29  78 W7        30.06R WCI  30
MACOMB*        CLEAR     35  29  78 W10       30.10S WCI  28
JACKSONVILLE*  CLEAR     39  31  73 NW5       30.10R
PITTSFIELD*    CLEAR     44  35  72 W5        30.12R
$$

ILZ028>032-037-038-041>044-048-051>054-059>061-300800-
CENTRAL ILLINOIS

CITY           SKY/WX    TMP DP  RH WIND       PRES   REMARKS
PONTIAC        CLEAR     37  32  82 W9        30.02R WCI  31
BLOOMINGTON    CLEAR     41  32  70 W9        30.05R
DECATUR        CLEAR     45  33  63 NW9       30.07R
PEORIA         CLEAR     44  29  55 W7        30.06R
LACON*         CLEAR     37  28  69 SW3       30.03S
LINCOLN*       CLEAR     42  32  68 W3        30.07S
SPRINGFIELD    CLEAR     43  32  65 NW7       30.09R
TAYLORVILLE    CLEAR     39  34  81 W7        30.09R WCI  34
$$

ILZ033-039-045-046-055>057-062-063-300800-
EAST-CENTRAL ILLINOIS

CITY           SKY/WX    TMP DP  RH WIND       PRES   REMARKS
CHAMPAIGN      CLEAR     40  37  89 W6        30.04R
DANVILLE*      CLEAR     37  35  93 SW6       29.99S WCI  32
RANTOUL*       CLEAR     34  33  96 SW7       30.02S WCI  28
MATTOON        CLEAR     39  35  86 W8        30.06R WCI  33
PARIS*         CLEAR     37  36  96 W7        30.05S WCI  32
$$

ILZ079-100>102-300800-
SOUTHWEST ILLINOIS

CITY           SKY/WX    TMP DP  RH WIND       PRES   REMARKS
ALTON          CLEAR     41  37  85 W6        30.11R
BELLEVILLE     CLEAR     42  40  93 NW5       30.10R
CAHOKIA*       CLEAR     42  38  85 CALM      30.11R
SPARTA*        CLEAR     46  39  77 W3        30.11S
$$

ILZ064>066-069>071-074>076-080>082-084>086-088>090-092>094-300800-
SOUTH-CENTRAL ILLINOIS

CITY           SKY/WX    TMP DP  RH WIND       PRES   REMARKS
CARBONDALE     CLEAR     50  41  71 NW5       30.10S
CAIRO*         CLEAR     52  46  79 NW9       30.08F
EFFINGHAM*     CLEAR     41  35  78 W7        30.09R
MARION         CLEAR     54  43  66 NW3       30.10S
MT. VERNON     CLEAR     46  37  71 CALM      30.09F
CENTRALIA*     CLEAR     42  37  82 W7        30.09S
SALEM*         CLEAR     45  40  82 W6        30.09S
METROPOLIS*    CLEAR     53  46  79 NW6       30.06F
$$

ILZ067-068-072-073-078-083-087-091-300800-
SOUTHEAST ILLINOIS

CITY           SKY/WX    TMP DP  RH WIND       PRES   REMARKS
LAWRENCEVILLE  CLEAR     47  41  80 W8        30.05F
FLORA*         CLEAR     48  40  72 W10       30.08S
FAIRFIELD*     CLEAR     47  42  82 W3        30.07S
HARRISBURG*    CLEAR     50  44  80 W10       30.09S
ROBINSON*      CLEAR     46  40  82 W12       30.06S
CARMI*         CLEAR     49  40  73 W8        30.07S
$$

ABBREVIATIONS USED IN REMARKS
   TC - TEMPERATURE IN CELSIUS
  WCI - WIND CHILL INDEX
   HX - HEAT INDEX
  VSB - VISIBILITY
$$



USA.gov is the U.S. government's official web portal to all federal, state and local government web resources and services.